• In Kazakhstan
  • List of Countries
  • For 7 days
  • Water Temperature
  • Weather Map
  • News
  • Weather Widgets
  • user-avatar
    Login

    Hourly Weather Lezhe

    Today, 22 August, Thursday

    Time Temperature Precipitation Wind Pressure Humidity
    00:00 +25°C° 0 mm 2 mps 739 mmHg 40%
    01:00 +25°C° 0 mm 2 mps 739 mmHg 40%
    02:00 +24°C° 0 mm 2 mps 739 mmHg 40%
    03:00 +24°C° 0 mm 2 mps 739 mmHg 39%
    04:00 +23°C° 0 mm 2 mps 739 mmHg 39%
    05:00 +25°C° 0 mm 2 mps 739 mmHg 36%
    06:00 +27°C° 0 mm 2 mps 740 mmHg 33%
    07:00 +29°C° 0 mm 2 mps 740 mmHg 31%
    08:00 +31°C° 0 mm 3 mps 740 mmHg 27%
    09:00 +34°C° 0 mm 3 mps 740 mmHg 24%
    10:00 +36°C° 0 mm 3 mps 740 mmHg 20%
    11:00 +37°C° 0 mm 3 mps 740 mmHg 19%
    12:00 +38°C° 0 mm 3 mps 740 mmHg 18%
    13:00 +39°C° 0 mm 3 mps 739 mmHg 17%
    14:00 +38°C° 0 mm 3 mps 739 mmHg 18%
    15:00 +38°C° 0 mm 3 mps 739 mmHg 20%
    16:00 +37°C° 0 mm 2 mps 738 mmHg 21%
    17:00 +34°C° 0 mm 2 mps 739 mmHg 26%
    18:00 +31°C° 0 mm 2 mps 739 mmHg 31%
    19:00 +28°C° 0 mm 2 mps 739 mmHg 35%
    20:00 +27°C° 0 mm 2 mps 739 mmHg 36%
    21:00 +27°C° 0 mm 2 mps 739 mmHg 36%
    22:00 +26°C° 0 mm 3 mps 740 mmHg 37%
    23:00 +26°C° 0 mm 3 mps 740 mmHg 38%

    Tomorrow, 23 August, Friday

    Time Temperature Precipitation Wind Pressure Humidity
    00:00 +25°C° 0 mm 2 mps 740 mmHg 40%
    01:00 +25°C° 0 mm 2 mps 740 mmHg 41%
    02:00 +25°C° 0 mm 2 mps 740 mmHg 43%
    03:00 +25°C° 0 mm 2 mps 739 mmHg 44%
    04:00 +24°C° 0 mm 2 mps 739 mmHg 46%
    05:00 +26°C° 0 mm 2 mps 740 mmHg 43%
    06:00 +28°C° 0 mm 2 mps 740 mmHg 40%
    07:00 +29°C° 0 mm 2 mps 740 mmHg 37%
    08:00 +32°C° 0 mm 2 mps 740 mmHg 33%
    09:00 +35°C° 0 mm 2 mps 740 mmHg 28%
    10:00 +37°C° 0 mm 2 mps 740 mmHg 24%
    11:00 +37°C° 0 mm 2 mps 740 mmHg 24%
    12:00 +37°C° 0 mm 3 mps 740 mmHg 23%
    13:00 +37°C° 0 mm 3 mps 739 mmHg 23%
    14:00 +37°C° 0 mm 3 mps 739 mmHg 25%
    15:00 +36°C° 0 mm 2 mps 739 mmHg 28%
    16:00 +35°C° 0 mm 2 mps 738 mmHg 30%
    17:00 +34°C° 0 mm 2 mps 738 mmHg 33%
    18:00 +31°C° 0 mm 1 mps 738 mmHg 36%
    19:00 +29°C° 0 mm 1 mps 738 mmHg 39%
    20:00 +29°C° 0 mm 1 mps 739 mmHg 39%
    21:00 +28°C° 0 mm 2 mps 739 mmHg 40%
    22:00 +28°C° 0 mm 2 mps 739 mmHg 40%
    23:00 +27°C° 0 mm 2 mps 739 mmHg 42%

    Day after tomorrow, 24 August, Saturday

    Time Temperature Precipitation Wind Pressure Humidity
    00:00 +27°C° 0 mm 2 mps 739 mmHg 45%
    01:00 +26°C° 0 mm 2 mps 739 mmHg 47%
    02:00 +26°C° 0 mm 2 mps 739 mmHg 47%
    03:00 +26°C° 0 mm 2 mps 739 mmHg 47%
    04:00 +25°C° 0 mm 2 mps 739 mmHg 47%
    05:00 +27°C° 0 mm 2 mps 739 mmHg 44%
    06:00 +28°C° 0 mm 2 mps 739 mmHg 42%
    07:00 +29°C° 0 mm 2 mps 739 mmHg 40%
    08:00 +31°C° 0 mm 2 mps 739 mmHg 35%
    09:00 +34°C° 0 mm 2 mps 739 mmHg 30%
    10:00 +36°C° 0 mm 2 mps 739 mmHg 26%
    11:00 +37°C° 0 mm 2 mps 739 mmHg 25%
    12:00 +37°C° 0 mm 2 mps 738 mmHg 25%
    13:00 +37°C° 0 mm 3 mps 738 mmHg 24%
    14:00 +36°C° 0 mm 3 mps 738 mmHg 28%
    15:00 +34°C° 0 mm 3 mps 737 mmHg 33%
    16:00 +32°C° 0 mm 2 mps 737 mmHg 37%
    17:00 +31°C° 0 mm 2 mps 737 mmHg 40%
    18:00 +30°C° 0 mm 2 mps 737 mmHg 42%
    19:00 +28°C° 0 mm 2 mps 738 mmHg 44%
    20:00 +28°C° 0.1 mm 2 mps 738 mmHg 46%
    21:00 +28°C° 0.1 mm 2 mps 738 mmHg 48%
    22:00 +27°C° 0.1 mm 2 mps 738 mmHg 50%
    23:00 +27°C° 0 mm 2 mps 738 mmHg 51%

    25 August, Sunday

    Time Temperature Precipitation Wind Pressure Humidity
    00:00 +26°C° 0 mm 2 mps 738 mmHg 51%
    01:00 +26°C° 0 mm 1 mps 738 mmHg 52%
    02:00 +26°C° 0 mm 1 mps 738 mmHg 52%
    03:00 +26°C° 0 mm 1 mps 737 mmHg 51%
    04:00 +26°C° 0 mm 2 mps 737 mmHg 50%
    05:00 +26°C° 0.2 mm 1 mps 737 mmHg 50%
    06:00 +27°C° 0.2 mm 1 mps 738 mmHg 50%
    07:00 +28°C° 0.2 mm 1 mps 738 mmHg 50%
    08:00 +30°C° 0 mm 1 mps 738 mmHg 42%
    09:00 +33°C° 0 mm 1 mps 738 mmHg 35%
    10:00 +36°C° 0 mm 1 mps 738 mmHg 27%
    11:00 +36°C° 0 mm 2 mps 738 mmHg 29%
    12:00 +35°C° 0 mm 2 mps 737 mmHg 31%
    13:00 +34°C° 0 mm 3 mps 737 mmHg 33%
    14:00 +33°C° 0.3 mm 3 mps 737 mmHg 40%
    15:00 +30°C° 0.3 mm 3 mps 737 mmHg 46%
    16:00 +28°C° 0.3 mm 3 mps 737 mmHg 53%
    17:00 +27°C° 0.1 mm 3 mps 737 mmHg 56%
    18:00 +26°C° 0.1 mm 3 mps 737 mmHg 60%
    19:00 +25°C° 0.1 mm 3 mps 737 mmHg 64%
    20:00 +24°C° 0 mm 3 mps 738 mmHg 65%
    21:00 +24°C° 0 mm 3 mps 738 mmHg 66%
    22:00 +24°C° 0 mm 3 mps 738 mmHg 67%
    23:00 +24°C° 0 mm 3 mps 738 mmHg 67%

    26 August, Monday

    Time Temperature Precipitation Wind Pressure Humidity
    00:00 +22°C° 0 mm 3 mps 738 mmHg 67%
    01:00 +22°C° 0 mm 3 mps 737 mmHg 67%
    02:00 +22°C° 0 mm 3 mps 737 mmHg 65%
    03:00 +24°C° 0 mm 2 mps 737 mmHg 63%
    04:00 +24°C° 0 mm 2 mps 737 mmHg 61%
    05:00 +25°C° 0.1 mm 2 mps 737 mmHg 61%
    06:00 +25°C° 0.1 mm 2 mps 737 mmHg 60%
    07:00 +26°C° 0.1 mm 2 mps 738 mmHg 60%
    08:00 +29°C° 0 mm 2 mps 738 mmHg 50%
    09:00 +32°C° 0 mm 1 mps 738 mmHg 39%
    10:00 +35°C° 0 mm 1 mps 738 mmHg 29%
    11:00 +36°C° 0 mm 2 mps 738 mmHg 29%
    12:00 +36°C° 0 mm 3 mps 738 mmHg 29%
    13:00 +36°C° 0 mm 4 mps 737 mmHg 29%
    14:00 +33°C° 0.8 mm 4 mps 737 mmHg 40%
    15:00 +29°C° 0.8 mm 4 mps 737 mmHg 50%
    16:00 +26°C° 0.8 mm 4 mps 737 mmHg 61%
    17:00 +25°C° 0.1 mm 3 mps 737 mmHg 63%
    18:00 +24°C° 0.1 mm 3 mps 738 mmHg 65%
    19:00 +22°C° 0.1 mm 3 mps 738 mmHg 67%
    20:00 +22°C° 0 mm 3 mps 738 mmHg 67%
    21:00 +22°C° 0 mm 3 mps 738 mmHg 67%
    22:00 +21°C° 0 mm 3 mps 738 mmHg 66%
    23:00 +21°C° 0 mm 2 mps 738 mmHg 67%

    27 August, Tuesday

    Time Temperature Precipitation Wind Pressure Humidity
    00:00 +21°C° 0 mm 2 mps 738 mmHg 67%
    01:00 +21°C° 0 mm 2 mps 738 mmHg 67%
    02:00 +21°C° 0 mm 2 mps 738 mmHg 67%
    03:00 +21°C° 0 mm 2 mps 738 mmHg 67%
    04:00 +21°C° 0 mm 2 mps 738 mmHg 67%
    05:00 +23°C° 0 mm 2 mps 738 mmHg 62%
    06:00 +25°C° 0 mm 2 mps 738 mmHg 57%
    07:00 +26°C° 0 mm 2 mps 738 mmHg 53%
    08:00 +29°C° 0 mm 2 mps 738 mmHg 46%
    09:00 +32°C° 0 mm 2 mps 739 mmHg 38%
    10:00 +35°C° 0 mm 2 mps 739 mmHg 31%
    11:00 +36°C° 0 mm 2 mps 739 mmHg 30%
    12:00 +36°C° 0 mm 3 mps 738 mmHg 29%
    13:00 +36°C° 0 mm 4 mps 738 mmHg 28%
    14:00 +34°C° 0.3 mm 3 mps 738 mmHg 35%
    15:00 +31°C° 0.3 mm 3 mps 738 mmHg 43%
    16:00 +29°C° 0.3 mm 3 mps 738 mmHg 50%
    17:00 +27°C° 0.1 mm 3 mps 738 mmHg 57%
    18:00 +25°C° 0.1 mm 2 mps 738 mmHg 63%
    19:00 +23°C° 0.1 mm 2 mps 739 mmHg 69%
    20:00 +23°C° 0.1 mm 2 mps 739 mmHg 70%
    21:00 +23°C° 0.1 mm 2 mps 739 mmHg 70%
    22:00 +23°C° 0.1 mm 2 mps 739 mmHg 70%
    23:00 +23°C° 0 mm 2 mps 739 mmHg 68%
    Show more